Location: Casteau
(50.5142°N, 4.0161°E)
Time: 00:27:46
(UTC+00:00)

S-56A Canister/Altair - Pass Details

Date: 07 August 2021
Orbit: 632 x 2500 km, 38.9° (Epoch: 19 September)

Event Time Altitude Azimuth Distance (km) Brightness Sun altitude
Rises 11:49:25 0° 209° (SSW) 4,712 12.0 55.8°
Reaches altitude 10° 11:52:43 10° 199° (SSW) 3,993 11.9 55.8°
Maximum altitude 12:01:48 30° 144° (SE) 3,245 11.7 55.7°
Drops below altitude 10° 12:13:13 10° 91° (E) 5,073 11.8 55.4°
Sets 12:18:03 0° 83° (E) 6,168 12.0 55.3°
